Regional Weather Roundup
Issued by NWS

Home | Current Version | Previous Version | Text Only | Print | Product List | Glossary On
Versions: 1 2 3 4 5 6 7 8 9 10 11 12 13 14 15 16 17 18 19 20 21 22 23 24 25 26 27 28 29 30 31 32 33 34 35 36 37 38 39 40 41 42 43 44 45 46 47 48 49 50
745
ASUS43 KDTX 281510
RWRMI
MICHIGAN HOURLY REGIONAL WEATHER ROUNDUP
NATIONAL WEATHER SERVICE DETROIT/PONTIAC MI
1100 AM EDT TUE MAR 28 2017

NOTE: "FAIR" INDICATES FEW OR NO CLOUDS BELOW 12,000 FEET WITH NO
SIGNIFICANT WEATHER AND/OR OBSTRUCTION TO VISIBILITY.

MIZ047>049-052>055-059>063-066>070-074>076-081>083-281600-
SOUTHEAST LOWER MICHIGAN

CITY           SKY/WX    TMP DP  RH WIND       PRES   REMARKS
ADRIAN         CLOUDY    44  40  85 NE15      30.04R
ANN ARBOR      CLOUDY    46  39  76 N8        30.03R
BAD AXE        CLOUDY    38  38  98 N8        30.09R WCI  32
CARO           CLOUDY    39  37  92 N8        30.08R WCI  34
DETROIT CITY   CLOUDY    45  38  76 N12       30.03S
DETROIT        CLOUDY    46  39  76 N13       30.04R
FLINT          CLOUDY    41  38  89 N10       30.07R
GROSSE ILE     CLOUDY    46  39  78 N10G17    30.02R
HILLSDALE      CLOUDY    43  37  81 N7        30.03R
HOWELL         CLOUDY    40  38  90 N6        30.05R

CITY           SKY/WX    TMP DP  RH WIND       PRES   REMARKS
JACKSON        CLOUDY    44  38  79 NE8       30.05R
LAMBERTVILLE   CLOUDY    46  41  81 NE8       30.03R
LANSING        CLOUDY    42  38  85 NE9       30.08R
LAPEER         CLOUDY    41  39  93 NE8       30.06R
MASON          CLOUDY    40  39  95 N8        30.06R FOG
MONROE         CLOUDY    46  42  83 N9        30.03R
MT. CLEMENS    CLOUDY    43  41  92 N16       30.02R
PONTIAC        CLOUDY    42  37  82 N12       30.03R
PORT HOPE        N/A     37  35  92 N6        30.08R WCI  32
PORT HURON     CLOUDY    41  36  81 N9        30.05R
TRI CITIES     CLOUDY    40  38  93 NE18      30.10R WCI  31
MIDLAND        CLOUDY    41  35  80 NE7       30.10R
TROY           CLOUDY    44  37  77 N10G17    30.05S
SAGINAW HB     CLOUDY    41  36  81 NE15      30.09R
$$
MIZ043>046-050>051-056>058-064>065-071>073-077>080-281600-
SOUTHWEST LOWER MICHIGAN

CITY           SKY/WX    TMP DP  RH WIND       PRES   REMARKS
BATTLE CREEK   CLOUDY    44  41  89 NE8       30.06R
BENTON HARBOR  CLOUDY    40  37  89 N7        30.09R
BIG RAPIDS     CLOUDY    39  35  84 NE6       30.09S WCI  35
COLDWATER      CLOUDY    45  41  85 N9        30.04R
FREMONT        CLOUDY    42  36  79 E6        30.09R
HOLLAND        CLOUDY    44  37  76 N7        30.09R
GRAND RAPIDS   CLOUDY    42  39  89 NE8       30.08R
IONIA          CLOUDY    41  38  89 N8        30.08R
KALAMAZOO      CLOUDY    45  38  76 N7        30.07R
LUDINGTON      CLOUDY    39  36  89 E5        30.12R
MARSHALL       CLOUDY    43  42  95 N3        30.06R
MOUNT PLEASANT CLOUDY    41  35  79 NE10      30.09R
MUSKEGON       CLOUDY    44  37  76 N3        30.10R
SOUTH HAVEN    CLOUDY    41  40  95 N5        30.08R
$$
MIZ016>042-281600-
NORTHERN LOWER MICHIGAN

CITY           SKY/WX    TMP DP  RH WIND       PRES   REMARKS
ALPENA         CLOUDY    43  35  73 N9        30.13R
BEAVER ISLAND  CLOUDY    35  35  97 NE5       30.15R WCI  31
BELLAIRE       CLOUDY    38  34  86 E5        30.14R WCI  34
CADILLAC       CLOUDY    37  35  92 NE6       30.09R WCI  32
CHARLEVOIX     CLOUDY    37  37 100 E7        30.17R WCI  31
FRANKFORT      CLOUDY    37  33  86 E5        30.13S WCI  33
GAYLORD        CLOUDY    37  33  85 NE8       30.10R WCI  31
GRAYLING       CLOUDY    37  34  87 NE8       30.11R WCI  31
HARBOR SPRINGS CLOUDY    38  35  89 NE7       30.13S WCI  33
HOUGHTON LAKE  CLOUDY    39  34  82 N9        30.10R WCI  33
OSCODA         CLOUDY    40  36  85 NE12G18   30.10R WCI  34
PELLSTON       CLOUDY    38  33  82 E5        30.14R WCI  34
ROGERS CITY    SUNNY     39  33  80 N7        30.15R WCI  34
TRAVERSE CITY  CLOUDY    38  34  85 N6        30.13R FOG     WCI  33
$$
MIZ007>008-015-281600-
EASTERN UPPER MICHIGAN

CITY           SKY/WX    TMP DP  RH WIND       PRES   REMARKS
KINROSS        CLOUDY    36  34  92 NW6       30.14R FOG     WCI  31
MACKINAC ISLAN CLOUDY    34  34 100 NE5       30.14R WCI  30
NEWBERRY       FOG       32  32  99 CALM      30.15R VSB 1
MUNISING         N/A     35  33  92 CALM      30.16R
$$
MIZ004>006-011>014-085-281600-
CENTRAL UPPER MICHIGAN

CITY           SKY/WX    TMP DP  RH WIND       PRES   REMARKS
MANISTIQUE     CLOUDY    34  32  93 NW3       30.16R FOG
ESCANABA       FOG       32  32 100 CALM      30.18R VSB 1/2
MENOMINEE        N/A    N/A N/A N/A MISG        N/A
SAWYER-GWINN   SUNNY     43  32  65 NW3       30.14R
$$
MIZ001>003-009>011-084-281600-
WESTERN UPPER MICHIGAN

CITY           SKY/WX    TMP DP  RH WIND       PRES   REMARKS
IRON MOUNTAIN  SUNNY     44  31  60 CALM      30.13R
HOUGHTON       MOSUNNY   43  31  62 W6        30.13R
COPPER HARBOR    N/A     38  33  82 N10       30.13R WCI  31
IRONWOOD       SUNNY     45  32  60 CALM      30.15R
$$

ABBREVIATIONS USED IN REMARKS
   TC - TEMPERATURE IN CELSIUS
  WCI - WIND CHILL INDEX
   HX - HEAT INDEX
  VSB - VISIBILITY





USA.gov is the U.S. government's official web portal to all federal, state and local government web resources and services.